Skip Page Navigation
NASA JPL Caltech
NASA Logo - Jet Propulsion Laboratory + View the NASA Portal
+ Center for Near-Earth Object Studies
JPL Home Earth Solar System Stars & Galaxies Technology
JPL Solar System Dynamics
BODIES ORBITS EPHEMERIDES TOOLS PHYSICAL DATA DISCOVERY FAQ SITE MAP

Significant website upgrade scheduled for September 27. More details available here.

JPL Small-Body Database Browser
Search: [ help ]  
442179 (2010 XG45)
Classification: Main-belt Asteroid          SPK-ID: 2442179
Ephemeris | Orbit Diagram | Orbital Elements | Mission Design | Physical Parameters | Discovery Circumstances | Close-Approach Data ]

[ show orbit diagram ]
Orbital Elements at Epoch 2459396.5 (2021-Jul-01.0) TDB
Reference: JPL 12 (heliocentric ecliptic J2000)
 Element Value Uncertainty (1-sigma)   Units 
e .2664081273411847 9.8455e-08  
a 3.123612758328149 6.6989e-08 au
q 2.291456932842915 3.1648e-07 au
i 16.19542837339727 1.3128e-05 deg
node 116.1510191007201 3.3613e-05 deg
peri 253.4129678689096 4.1402e-05 deg
M 4.39219952266956 2.4714e-05 deg
tp 2459371.898376458955
(2021-Jun-06.39837646)
0.00013794 TDB
period 2016.434915823959
5.52
6.4866e-05
1.776e-07
d
yr
n .1785329132990618 5.7432e-09 deg/d
Q 3.955768583813384 8.4835e-08 au
  Orbit Determination Parameters
   # obs. used (total)      68  
   data-arc span      4946 days (13.54 yr)  
   first obs. used      2004-08-21  
   last obs. used      2018-03-07  
   planetary ephem.      DE441  
   SB-pert. ephem.      SB441-N16  
   condition code      0  
   norm. resid. RMS      .47352  
   source      ORB  
   producer      Otto Matic  
   solution date      2021-Apr-14 14:43:21  

Additional Information
 Earth MOID = 1.34964 au 
 Jupiter MOID = 1.81912 au 
 T_jup = 3.100 
[ hide covariance matrix ]
Orbital Elements at Epoch 2457138.5 (2015-Apr-26.0) TDB
Reference: JPL 12 (heliocentric ecliptic J2000)
 Element Value Uncertainty (1-sigma)   Units 
e .2700248555978639 9.6197e-08  
q 2.277797560174291 3.0888e-07 au
tp 2457360.512125194448
(2015-Dec-04.01212519)
0.0001103 TDB
node 116.2375560273571 3.3672e-05 deg
peri 253.9066396138654 4.1406e-05 deg
i 16.19184609995571 1.3121e-05 deg
  Orbit Determination Parameters
   # obs. used (total)      68  
   data-arc span      4946 days (13.54 yr)  
   first obs. used      2004-08-21  
   last obs. used      2018-03-07  
   planetary ephem.      DE441  
   SB-pert. ephem.      SB441-N16  
   condition code      0  
   norm. resid. RMS      .47352  
   source      ORB  
   producer      Otto Matic  
   solution date      2021-Apr-14 14:43:21  

Additional Information
 Jupiter MOID = 1.81912 au 
 T_jup = 3.100 
Orbit Covariance (6×6)
  e q tp node peri i
e 9.253807520569459E-15 -2.93517230796311E-14 -5.39394088152939E-12 1.172723608313489E-13 -1.311517983727521E-12 -1.988284904290453E-14
q -2.93517230796311E-14 9.540720972622864E-14 1.769306805348378E-11 -3.734343789165178E-13 4.193028077189822E-12 6.930882226823729E-14
tp -5.39394088152939E-12 1.769306805348378E-11 1.216511141088498E-8 -9.205917287579794E-11 2.729981376960163E-9 2.467564300426282E-11
node 1.172723608313489E-13 -3.734343789165178E-13 -9.205917287579794E-11 1.133806643447111E-9 -1.108891295716966E-9 1.476810757502567E-10
peri -1.311517983727521E-12 4.193028077189822E-12 2.729981376960163E-9 -1.108891295716966E-9 1.714472510940567E-9 -1.35903817500393E-10
i -1.988284904290453E-14 6.930882226823729E-14 2.467564300426282E-11 1.476810757502567E-10 -1.35903817500393E-10 1.721532640357802E-10

Ephemeris | Orbit Diagram | Orbital Elements | Mission Design | Physical Parameters | Discovery Circumstances | Close-Approach Data ]

Physical Parameter Table
Parameter Symbol Value Units Sigma Reference Notes
absolute magnitude H 16.4   n/a MPO440830  

442179 (2010 XG45)          Discovered 2005-Dec-28 by Spacewatch at Kitt Peak
Reference: Last Updated: 2015-09-02

[ hide close-approach data ]
Close-Approach Data   ...sorted by Date/Time (TDB)
Date/Time (TDB) Time Uncertainty
(days_HH:MM)
Body Nominal Distance (au) Minimum Distance (au) Maximum Distance (au) V-relative (km/s) V-infinity (km/s) JD (TDB) Time Uncertainty (minutes) Semi-major axis (km) Semi-minor axis (km) range-LOV angle (deg) N-sigma BP Orbit Ref. Reference Modified
1958-Mar-14 04:04 00:08 Jupiter 1.96589376952495 1.96589103949749 1.96589649956375 0.647648472559808 n/a 2436276.669780273 8.4193106908338 302.227023022208 66.5887820653299 66.248114629882 4060355.57472478 F 12 CATAB v2.0f-lin.ifort 2021-Apr-14 14:43:21 2021-Apr-14 14:43
1968-Mar-25 12:33 00:04 Jupiter 1.82082560609173 1.82082407859682 1.82082713358933 3.49908347152708 3.36351203607114 2439941.023001599 4.40833995247274 551.151449879352 64.9479650418548 -89.8758697804721 728980.333168048 T 12 CATAB v2.0f-lin.ifort 2021-Apr-14 14:43:21 2021-Apr-14 14:43
2040-Nov-26 04:44 00:04 Jupiter 1.91899364225354 1.91899167118021 1.91899561602186 0.950837866839094 0.145995993011218 2466484.697308712 4.08661821120978 545672.369632697 3467.38412283741 14.4205411053651 5202592.95666914 T 12 CATAB v2.0f-lin.ifort 2021-Apr-14 14:43:21 2021-Apr-14 14:43
2051-Jan-08 00:30 00:04 Jupiter 1.86336005402559 1.86335826545203 1.86336184261227 3.75590521955531 3.63286243320514 2470179.520819497 3.8969328801291 459.49787836798 65.3763738869495 85.5661219436119 823127.416847094 T 12 CATAB v2.0f-lin.ifort 2021-Apr-14 14:43:21 2021-Apr-14 14:43
2123-Aug-17 21:09 00:15 Jupiter 1.89288799832328 1.89288533381673 1.89289066328315 1.42259904362453 1.06246667993556 2496698.381496519 14.8966939332329 5232.22850146421 477.175930726842 35.4379816931027 446189.323628422 T 12 CATAB v2.0f-lin.ifort 2021-Apr-14 14:43:21 2021-Apr-14 14:43
2133-Oct-24 16:25 00:12 Jupiter 1.93116223187854 1.93115793605144 1.93116652796986 4.0557593093297 3.94613333441603 2500419.183823982 11.939700057526 1233.43281182733 66.378322779003 82.5181636246241 960185.429021845 T 12 CATAB v2.0f-lin.ifort 2021-Apr-14 14:43:21 2021-Apr-14 14:43

Alternate Designations
 2010 XG45 = 2006 AG51 
Ephemeris | Orbit Diagram | Orbital Elements | Mission Design | Physical Parameters | Discovery Circumstances | Close-Approach Data ]
ABOUT SSD CREDITS/AWARDS PRIVACY/COPYRIGHT GLOSSARY LINKS
FirstGov 2021-Sep-19 05:35 UT
(server date/time)  
NASA Home Page
Site Manager:   Ryan S. Park
Webmaster  Alan B. Chamberlin